When you browse on this site, cookies collect data to enhance your experience and personalize the content and advertising you see.
Visit our Privacy Policy to learn more. By continuing to use the site, you agree to this use of cookies and data.
  • In Switzerland
  • List of Countries
  • For 7 days
  • Water Temperature
  • Weather Map
  • Weather Widgets
  • user-avatar
    Login

    Hourly Weather Lucena

    Today, 23 September, Monday

    Time Temperature Precipitation Wind Pressure Humidity
    00:00 +19°C° 0 mm 1 mps 717 mmHg 57%
    01:00 +19°C° 0 mm 1 mps 717 mmHg 61%
    02:00 +16°C° 0 mm 0 mps 717 mmHg 64%
    03:00 +16°C° 0 mm 0 mps 717 mmHg 68%
    04:00 +15°C° 0 mm 0 mps 717 mmHg 69%
    05:00 +15°C° 0 mm 0 mps 717 mmHg 69%
    06:00 +15°C° 0 mm 0 mps 717 mmHg 70%
    07:00 +18°C° 0 mm 1 mps 718 mmHg 63%
    08:00 +20°C° 0 mm 1 mps 718 mmHg 56%
    09:00 +22°C° 0 mm 1 mps 719 mmHg 49%
    10:00 +23°C° 0 mm 1 mps 719 mmHg 43%
    11:00 +25°C° 0 mm 2 mps 719 mmHg 37%
    12:00 +26°C° 0 mm 2 mps 719 mmHg 31%
    13:00 +27°C° 0 mm 2 mps 719 mmHg 29%
    14:00 +28°C° 0 mm 2 mps 719 mmHg 27%
    15:00 +28°C° 0 mm 2 mps 719 mmHg 25%
    16:00 +27°C° 0 mm 2 mps 718 mmHg 27%
    17:00 +26°C° 0 mm 1 mps 718 mmHg 29%
    18:00 +25°C° 0 mm 1 mps 718 mmHg 32%
    19:00 +24°C° 0 mm 1 mps 718 mmHg 33%
    20:00 +24°C° 0 mm 1 mps 719 mmHg 35%
    21:00 +21°C° 0 mm 0 mps 719 mmHg 37%
    22:00 +20°C° 0 mm 0 mps 719 mmHg 38%
    23:00 +20°C° 0 mm 0 mps 718 mmHg 39%

    Tomorrow, 24 September, Tuesday

    Time Temperature Precipitation Wind Pressure Humidity
    00:00 +20°C° 0 mm 0 mps 718 mmHg 39%
    01:00 +19°C° 0 mm 0 mps 718 mmHg 40%
    02:00 +19°C° 0 mm 0 mps 718 mmHg 41%
    03:00 +18°C° 0 mm 0 mps 718 mmHg 42%
    04:00 +18°C° 0 mm 0 mps 717 mmHg 42%
    05:00 +18°C° 0 mm 0 mps 717 mmHg 43%
    06:00 +17°C° 0 mm 0 mps 717 mmHg 44%
    07:00 +19°C° 0 mm 0 mps 718 mmHg 39%
    08:00 +21°C° 0 mm 0 mps 718 mmHg 35%
    09:00 +25°C° 0 mm 1 mps 719 mmHg 31%
    10:00 +26°C° 0 mm 1 mps 719 mmHg 28%
    11:00 +28°C° 0 mm 1 mps 719 mmHg 25%
    12:00 +30°C° 0 mm 2 mps 719 mmHg 21%
    13:00 +30°C° 0 mm 2 mps 718 mmHg 21%
    14:00 +31°C° 0 mm 2 mps 718 mmHg 20%
    15:00 +31°C° 0 mm 3 mps 718 mmHg 20%
    16:00 +30°C° 0 mm 2 mps 717 mmHg 22%
    17:00 +29°C° 0 mm 2 mps 717 mmHg 23%
    18:00 +28°C° 0 mm 1 mps 717 mmHg 25%
    19:00 +27°C° 0 mm 1 mps 717 mmHg 27%
    20:00 +26°C° 0 mm 1 mps 717 mmHg 28%
    21:00 +25°C° 0 mm 1 mps 717 mmHg 30%
    22:00 +24°C° 0 mm 1 mps 717 mmHg 33%
    23:00 +23°C° 0 mm 1 mps 717 mmHg 35%

    Day after tomorrow, 25 September, Wednesday

    Time Temperature Precipitation Wind Pressure Humidity
    00:00 +23°C° 0 mm 1 mps 717 mmHg 38%
    01:00 +22°C° 0 mm 1 mps 716 mmHg 42%
    02:00 +19°C° 0 mm 0 mps 716 mmHg 45%
    03:00 +19°C° 0 mm 0 mps 716 mmHg 48%
    04:00 +18°C° 0 mm 0 mps 716 mmHg 51%
    05:00 +18°C° 0 mm 0 mps 716 mmHg 54%
    06:00 +18°C° 0 mm 0 mps 716 mmHg 57%
    07:00 +19°C° 0 mm 0 mps 716 mmHg 54%
    08:00 +21°C° 0 mm 0 mps 716 mmHg 52%
    09:00 +24°C° 0 mm 1 mps 717 mmHg 49%
    10:00 +26°C° 0 mm 1 mps 717 mmHg 46%
    11:00 +27°C° 0 mm 2 mps 717 mmHg 42%
    12:00 +29°C° 0 mm 3 mps 717 mmHg 38%
    13:00 +29°C° 0 mm 3 mps 717 mmHg 36%
    14:00 +30°C° 0 mm 3 mps 716 mmHg 34%
    15:00 +30°C° 0 mm 3 mps 716 mmHg 32%
    16:00 +29°C° 0 mm 3 mps 716 mmHg 33%
    17:00 +29°C° 0 mm 2 mps 716 mmHg 34%
    18:00 +28°C° 0 mm 2 mps 716 mmHg 35%
    19:00 +27°C° 0 mm 1 mps 716 mmHg 36%
    20:00 +25°C° 0 mm 1 mps 716 mmHg 37%
    21:00 +24°C° 0 mm 1 mps 716 mmHg 38%
    22:00 +23°C° 0 mm 1 mps 716 mmHg 39%
    23:00 +21°C° 0 mm 0 mps 716 mmHg 40%

    26 September, Thursday

    Time Temperature Precipitation Wind Pressure Humidity
    00:00 +20°C° 0 mm 0 mps 716 mmHg 41%
    01:00 +20°C° 0 mm 0 mps 716 mmHg 43%
    02:00 +19°C° 0 mm 0 mps 716 mmHg 44%
    03:00 +19°C° 0 mm 0 mps 716 mmHg 46%
    04:00 +19°C° 0 mm 0 mps 716 mmHg 48%
    05:00 +18°C° 0 mm 0 mps 716 mmHg 50%
    06:00 +18°C° 0 mm 0 mps 716 mmHg 51%
    07:00 +20°C° 0 mm 0 mps 717 mmHg 47%
    08:00 +21°C° 0 mm 0 mps 717 mmHg 43%
    09:00 +25°C° 0 mm 1 mps 718 mmHg 39%
    10:00 +27°C° 0 mm 1 mps 718 mmHg 36%
    11:00 +28°C° 0 mm 2 mps 718 mmHg 33%
    12:00 +30°C° 0 mm 3 mps 718 mmHg 30%
    13:00 +30°C° 0 mm 3 mps 718 mmHg 28%
    14:00 +31°C° 0 mm 3 mps 718 mmHg 27%
    15:00 +31°C° 0 mm 3 mps 717 mmHg 25%
    16:00 +30°C° 0 mm 3 mps 717 mmHg 27%
    17:00 +29°C° 0 mm 2 mps 717 mmHg 29%
    18:00 +28°C° 0 mm 2 mps 717 mmHg 31%
    19:00 +26°C° 0 mm 2 mps 717 mmHg 33%
    20:00 +25°C° 0 mm 1 mps 718 mmHg 36%
    21:00 +24°C° 0 mm 1 mps 718 mmHg 39%
    22:00 +23°C° 0 mm 1 mps 718 mmHg 41%
    23:00 +22°C° 0 mm 1 mps 717 mmHg 43%

    27 September, Friday

    Time Temperature Precipitation Wind Pressure Humidity
    00:00 +20°C° 0 mm 0 mps 717 mmHg 46%
    01:00 +19°C° 0 mm 0 mps 717 mmHg 48%
    02:00 +19°C° 0 mm 0 mps 717 mmHg 50%
    03:00 +18°C° 0 mm 0 mps 717 mmHg 52%
    04:00 +18°C° 0 mm 0 mps 717 mmHg 53%
    05:00 +18°C° 0 mm 0 mps 717 mmHg 54%
    06:00 +17°C° 0 mm 0 mps 717 mmHg 55%
    07:00 +19°C° 0 mm 0 mps 717 mmHg 50%
    08:00 +21°C° 0 mm 0 mps 718 mmHg 44%
    09:00 +23°C° 0 mm 0 mps 718 mmHg 39%
    10:00 +26°C° 0 mm 1 mps 718 mmHg 34%
    11:00 +28°C° 0 mm 1 mps 718 mmHg 29%
    12:00 +30°C° 0 mm 2 mps 718 mmHg 24%
    13:00 +30°C° 0 mm 2 mps 718 mmHg 22%
    14:00 +31°C° 0 mm 3 mps 717 mmHg 21%
    15:00 +31°C° 0 mm 3 mps 717 mmHg 19%
    16:00 +30°C° 0 mm 2 mps 717 mmHg 21%
    17:00 +29°C° 0 mm 2 mps 717 mmHg 23%
    18:00 +28°C° 0 mm 1 mps 717 mmHg 25%
    19:00 +27°C° 0 mm 1 mps 717 mmHg 26%
    20:00 +26°C° 0 mm 1 mps 717 mmHg 28%
    21:00 +25°C° 0 mm 1 mps 717 mmHg 29%
    22:00 +22°C° 0 mm 0 mps 717 mmHg 31%
    23:00 +21°C° 0 mm 0 mps 717 mmHg 34%

    28 September, Saturday

    Time Temperature Precipitation Wind Pressure Humidity
    00:00 +21°C° 0 mm 0 mps 717 mmHg 36%
    01:00 +20°C° 0 mm 0 mps 717 mmHg 37%
    02:00 +20°C° 0 mm 0 mps 717 mmHg 38%
    03:00 +19°C° 0 mm 0 mps 716 mmHg 39%
    04:00 +19°C° 0 mm 0 mps 716 mmHg 39%
    05:00 +19°C° 0 mm 0 mps 716 mmHg 40%
    06:00 +18°C° 0 mm 0 mps 716 mmHg 41%
    07:00 +20°C° 0 mm 0 mps 717 mmHg 38%
    08:00 +22°C° 0 mm 0 mps 717 mmHg 34%
    09:00 +24°C° 0 mm 0 mps 717 mmHg 30%
    10:00 +27°C° 0 mm 1 mps 718 mmHg 27%
    11:00 +29°C° 0 mm 1 mps 718 mmHg 24%
    12:00 +31°C° 0 mm 2 mps 718 mmHg 21%
    13:00 +31°C° 0 mm 2 mps 718 mmHg 20%
    14:00 +32°C° 0 mm 2 mps 717 mmHg 18%
    15:00 +34°C° 0 mm 3 mps 717 mmHg 17%
    16:00 +31°C° 0 mm 2 mps 717 mmHg 19%
    17:00 +30°C° 0 mm 2 mps 716 mmHg 21%
    18:00 +28°C° 0 mm 2 mps 716 mmHg 23%
    19:00 +27°C° 0 mm 1 mps 716 mmHg 25%
    20:00 +26°C° 0 mm 1 mps 717 mmHg 27%
    21:00 +25°C° 0 mm 1 mps 717 mmHg 29%
    22:00 +24°C° 0 mm 1 mps 717 mmHg 31%
    23:00 +23°C° 0 mm 1 mps 717 mmHg 33%
    Show more